Location: Unspecified
(50.1700°N, 6.8600°E)
Time: 00:50:35
(UTC+00:00)

Cosmos-2242 - Pass Details

Date: 24 January 2019
Orbit: 591 x 617 km, 82.5° (Epoch: 13 October)

Event Time Altitude Azimuth Distance (km) Brightness Sun altitude
Rises 06:36:11 0° 216° (SW) 2,833 6.3 -6.8°
Reaches altitude 10° 06:38:35 10° 227° (SW) 1,940 5.4 -6.4°
Maximum altitude 06:42:23 30° 289° (WNW) 1,087 3.8 -5.9°
Drops below altitude 10° 06:46:15 10° 352° (N) 1,969 5.3 -5.3°
Sets 06:48:42 0° 3° (N) 2,883 6.3 -4.9°
